Temperature
5 4 4 4 5 5 5 5 5 6 6 6 5 6 6 7 7 6 7 7 7 8 9 9 9 10 10 10 11 11 11 12 12 12 12 12 12 12 12 13 13 13 13 13
4 4 5 5 5 5 5 5 5 6 7 7 6 6 6 6 6 7 7 7 7 7 8 9 9 9 9 10 10 10 11 11 11 11 12 12 12 12 12 12 12 12 12 12
5 5 6 6 6 5 6 5 5 6 6 6 6 6 6 7 7 7 7 6 6 7 7 8 8 9 9 9 10 10 10 11 11 11 11 11 11 11 11 12 12 12 12 12
5 6 6 6 6 6 6 6 6 6 5 5 5 5 6 6 6 6 6 6 6 6 6 7 7 8 9 9 9 10 10 10 10 10 10 11 11 11 11 11 11 12 12 12
5 6 6 6 6 6 6 7 6 6 5 5 5 5 5 6 6 6 5 5 6 6 6 6 7 7 8 9 9 9 9 10 10 10 10 10 10 10 10 11 11 11 11 11
5 6 6 6 7 7 7 6 6 5 5 5 5 5 5 5 5 5 5 5 5 5 6 6 6 7 7 8 8 9 9 9 9 9 10 10 10 10 10 10 10 10 11 11
5 6 6 7 7 7 6 6 5 5 5 5 5 5 5 5 5 5 5 4 5 5 5 5 6 6 7 7 8 8 8 9 9 9 9 9 9 9 9 9 10 10 10 10
5 5 6 6 6 6 6 6 6 6 6 5 5 5 5 6 5 5 5 4 4 5 5 5 5 6 6 6 7 7 8 8 8 8 8 9 9 9 9 9 9 9 10 10
5 5 6 7 7 7 6 5 6 5 5 5 5 5 6 6 5 5 4 4 4 4 4 5 5 5 6 6 6 7 7 7 7 8 8 8 8 8 8 9 9 9 9 9
5 5 6 6 7 6 6 5 4 5 5 6 6 5 5 5 4 4 4 4 4 4 4 4 5 5 5 5 6 6 6 6 7 7 7 8 8 8 8 8 8 8 9 9
5 5 5 6 6 6 6 5 5 4 5 5 6 6 5 5 4 4 3 4 4 4 4 4 4 5 5 5 5 5 6 6 6 7 7 7 7 7 7 8 8 8 8 8
5 4 4 5 6 6 6 5 5 5 4 4 4 5 5 4 4 4 4 4 4 4 4 4 4 5 5 5 5 5 5 5 6 6 7 7 7 7 7 7 7 7 8 7
5 4 4 5 6 5 5 5 5 4 3 3 4 5 5 4 4 4 4 4 4 4 4 4 4 4 4 4 5 5 5 5 5 6 6 6 6 6 6 7 7 7 7 7
5 4 4 5 5 5 5 5 5 4 3 4 4 4 4 4 4 3 4 4 4 4 4 4 4 4 4 4 4 4 5 5 5 5 6 6 6 6 6 6 6 6 6 6
4 4 4 4 4 5 5 5 5 4 4 4 5 4 4 4 3 4 4 4 4 4 4 4 4 3 3 4 4 4 4 4 5 5 5 5 5 5 5 5 5 5 5 5
3 4 4 4 4 4 4 4 4 4 4 4 4 4 4 4 4 4 4 4 4 4 4 4 4 3 3 3 3 3 4 4 4 4 4 4 4 5 5 5 5 5 5 4
3 4 4 3 3 4 4 4 4 5 4 4 4 5 4 4 3 4 4 4 4 4 4 4 4 4 3 3 3 3 3 4 4 4 4 4 4 4 4 4 4 4 4 4
3 3 3 3 3 5 5 5 4 5 5 4 4 4 4 4 5 5 5 5 5 4 4 4 4 4 3 3 3 3 3 3 4 4 4 4 4 4 4 4 4 4 3 3
2 3 3 2 3 3 5 5 4 5 5 4 4 4 4 4 4 4 5 5 5 5 4 4 4 3 3 3 3 3 3 3 3 3 3 3 3 3 3 3 3 3 3 3
2 2 2 2 3 5 6 5 5 5 5 5 4 3 3 3 3 4 6 5 5 5 4 4 4 3 3 3 3 3 3 3 3 3 3 3 3 3 2 2 2 2 2 2
3 2 2 2 3 3 4 4 5 5 6 6 5 5 4 3 5 6 6 5 5 5 4 4 4 4 3 3 3 3 3 3 3 2 2 2 2 2 2 2 2 2 2 2
2 2 2 2 2 4 4 4 4 5 6 6 6 6 5 6 6 6 5 5 5 5 4 4 4 4 3 3 3 3 2 2 2 2 2 2 2 1 1 1 1 1 1 1
1 1 1 2 4 4 5 5 6 6 6 6 6 6 6 6 5 5 5 5 5 5 4 4 4 3 3 3 2 2 2 2 2 2 1 1 1 1 1 1 1 1 1 0
1 1 1 1 2 3 5 6 7 7 6 7 7 6 6 6 6 5 5 5 5 4 4 4 3 3 3 3 2 2 2 2 2 2 1 1 1 1 1 0 0 -0 -0 -1
1 0 -0 1 1 3 6 7 7 7 7 7 6 6 6 6 5 5 5 5 5 4 4 3 3 3 3 2 2 2 2 2 1 1 1 1 1 0 0 -0 -1 -1 -1 -2
-0 1 1 3 4 3 6 7 7 7 6 6 6 6 6 6 5 5 5 5 4 4 4 3 3 3 2 2 2 2 1 1 1 1 1 0 0 -0 -0 -1 -1 -1 -1 -2
Wind_Speed
1 2 2 5 5 4 2 3 6 6 4 4 6 10 13 11 8 7 7 6 6 8 6 5 4 3 3 3 5 5 5 5 4 4 4 4 4 4 5 5 6 8 8 9
2 3 5 4 4 4 4 5 6 6 3 3 6 10 9 7 6 6 7 7 7 7 7 5 3 2 2 3 4 4 5 5 5 5 4 4 4 3 4 4 4 6 7 7
3 3 2 3 3 4 5 5 5 5 6 3 4 7 6 6 6 8 9 8 8 7 7 7 5 3 2 2 2 3 4 4 4 5 4 3 3 2 3 4 4 5 6 7
3 4 2 3 4 4 4 5 6 5 3 3 2 4 6 7 8 10 11 10 9 8 7 7 6 4 3 2 1 1 2 3 4 4 5 5 4 4 4 4 4 4 5 5
2 2 1 3 4 4 4 3 3 3 1 2 2 1 6 6 7 11 11 11 10 9 8 7 6 5 5 3 2 1 2 2 3 3 4 5 3 3 2 2 2 3 3 4
3 2 2 2 2 2 2 1 1 1 1 2 2 1 4 5 7 10 11 11 10 10 9 8 8 7 6 5 4 3 3 2 2 3 3 4 4 3 3 2 2 2 2 3
5 3 2 1 2 2 1 2 3 4 3 2 2 0 3 4 6 7 8 9 9 9 9 9 10 9 9 8 6 5 4 4 4 3 2 2 3 3 3 3 2 2 2 2
3 4 3 1 1 1 1 2 2 1 2 3 3 2 3 2 5 6 6 6 8 9 9 10 10 9 9 9 7 5 5 4 4 3 2 1 1 2 1 2 2 2 2 2
1 4 4 2 1 1 1 0 1 3 0 1 3 4 4 3 6 7 8 8 9 9 9 9 9 9 9 9 8 6 5 5 4 3 2 2 1 1 1 0 0 1 1 1
1 3 4 4 3 3 1 2 2 2 1 2 4 3 3 5 6 6 7 7 7 8 8 8 8 9 9 8 8 8 7 5 4 3 2 2 2 1 0 1 1 1 1 0
1 1 5 3 2 2 2 2 2 2 1 2 2 4 2 2 2 3 4 5 6 7 7 7 7 7 7 8 8 8 8 7 6 4 3 3 2 2 2 2 1 1 0 1
0 1 3 4 3 2 2 1 2 1 1 1 2 4 2 1 0 1 3 4 5 6 6 7 7 7 8 8 8 8 7 7 6 5 4 3 2 2 3 2 1 2 1 1
1 2 3 5 4 3 1 0 1 2 2 2 2 4 2 2 2 2 2 3 4 5 6 7 8 8 8 8 8 8 7 7 6 5 4 4 3 3 3 2 2 2 2 2
3 2 3 4 4 3 4 3 1 3 2 3 5 5 4 3 2 2 2 3 3 4 5 6 7 7 7 7 7 7 7 7 6 6 6 5 4 3 3 2 2 2 3 3
3 1 2 5 5 4 5 6 3 5 6 6 5 5 7 5 4 3 2 2 3 4 5 5 6 6 7 7 8 8 7 7 7 7 7 6 5 4 4 4 4 4 4 4
2 0 2 4 3 4 6 7 6 5 5 5 4 7 5 3 2 2 2 1 2 3 4 4 5 6 6 6 6 6 7 7 7 7 6 6 6 5 5 5 4 4 4 4
1 1 2 4 6 6 7 6 6 4 5 6 7 6 2 3 4 5 4 3 3 3 3 3 3 4 4 4 4 5 6 6 6 6 6 7 6 6 6 5 5 5 5 4
2 2 1 3 5 4 6 2 4 4 5 7 6 5 5 5 4 3 4 5 4 3 2 2 2 3 3 3 4 4 5 6 6 7 7 7 7 7 7 7 7 6 5 5
4 4 1 0 3 8 7 3 3 3 5 6 7 6 3 2 1 3 4 5 5 4 3 2 2 1 2 3 3 4 5 5 6 7 7 7 7 7 7 8 7 6 5 5
3 3 3 1 2 5 5 1 2 2 5 4 6 6 5 5 2 5 3 4 4 3 2 1 0 1 2 3 3 4 5 6 6 6 6 6 6 6 6 6 5 5 5 5
1 1 3 4 5 8 7 2 3 2 5 2 4 6 7 8 6 3 2 3 3 3 2 1 1 0 1 2 2 3 4 4 5 5 5 5 5 5 4 4 4 5 5 5
6 5 5 4 4 8 3 5 6 7 3 2 3 5 6 5 3 2 3 3 3 3 2 2 1 1 1 1 1 2 3 4 3 3 4 4 4 4 5 5 5 5 5 5
7 8 5 8 9 5 4 7 5 3 3 4 4 4 5 5 5 4 3 4 3 3 3 2 2 1 1 0 0 1 3 3 2 3 3 3 4 4 4 4 5 5 5 5
5 4 4 6 10 8 9 8 7 6 6 6 5 4 5 6 6 5 4 4 4 3 3 2 2 2 3 2 1 2 3 2 1 2 3 3 4 5 5 4 4 4 4 4
6 5 4 7 9 8 7 7 7 5 5 4 4 5 6 6 6 6 5 5 5 4 3 3 3 4 4 2 2 2 2 1 2 3 3 4 3 4 4 4 3 4 3 4
7 9 8 9 8 6 7 5 3 4 5 5 4 4 5 6 7 6 6 5 5 4 4 4 4 4 4 2 2 2 1 1 1 2 3 3 3 3 3 4 5 6 6 8
Wind_Direction
90 94 216 215 203 220 230 266 282 280 285 300 290 296 306 319 330 322 321 322 321 308 289 280 266 255 255 238 211 209 199 192 175 172 178 183 191 191 190 196 193 192 191 189
59 252 241 219 213 234 244 273 281 290 289 280 295 303 309 325 337 341 343 339 330 332 340 331 320 301 268 232 206 202 199 187 182 180 177 179 173 184 192 190 198 193 193 194
204 251 233 212 230 242 251 239 252 270 307 289 306 314 330 340 10 8 3 354 347 343 344 345 348 332 313 289 243 221 191 181 176 172 160 154 148 146 186 194 205 203 197 196
253 267 244 235 239 217 262 238 242 265 311 324 7 310 321 344 0 5 360 357 354 352 356 1 4 2 356 327 295 203 170 175 173 163 160 161 173 183 196 196 208 205 200 199
278 282 256 246 246 202 235 256 253 263 252 306 326 259 311 344 357 355 354 358 359 358 1 6 9 8 5 7 28 58 127 146 150 158 165 166 180 187 182 174 190 206 198 196
265 267 241 245 275 205 238 329 327 48 75 321 314 180 318 343 339 339 351 357 359 1 8 13 12 15 14 18 33 48 92 91 111 144 161 159 168 172 158 160 190 218 213 211
341 325 308 255 347 5 63 53 22 8 14 287 314 156 275 319 336 337 344 351 358 4 12 16 14 18 18 19 27 39 57 55 61 83 109 148 169 173 172 180 196 208 218 226
4 330 317 321 224 263 300 135 143 218 271 304 338 277 272 327 342 348 353 355 3 8 14 17 15 18 18 16 21 34 46 44 46 64 76 105 148 167 169 192 198 206 216 225
5 303 311 296 263 153 60 137 179 139 115 311 303 300 306 11 358 3 4 10 9 7 14 17 15 18 18 17 16 22 34 36 33 37 51 51 66 98 97 162 227 229 231 235
182 297 313 314 35 31 100 159 89 105 114 310 305 287 284 313 330 344 355 2 5 6 10 13 15 17 17 17 16 21 28 27 22 26 48 62 57 48 66 91 16 304 298 261
197 277 320 359 20 324 9 58 84 106 148 166 285 282 247 242 296 323 337 350 358 1 6 9 9 11 13 17 17 19 20 18 13 20 43 55 54 55 54 48 331 288 328 293
181 122 297 281 265 222 191 165 148 142 260 178 204 273 327 207 273 344 339 344 350 0 4 7 8 11 15 15 12 13 14 15 11 16 38 44 40 46 44 25 345 344 348 305
138 97 356 348 348 358 358 257 137 133 126 167 201 270 345 17 11 351 333 330 341 358 4 8 12 10 8 8 8 9 9 10 9 18 37 37 30 29 15 346 340 345 355 347
110 117 172 215 260 285 292 281 185 151 174 224 230 253 286 293 294 298 303 313 338 356 3 7 8 4 3 4 8 10 8 7 11 22 33 33 25 18 355 347 359 5 10 3
94 179 246 254 269 270 266 265 233 205 207 209 234 235 252 247 234 242 260 313 356 358 357 358 360 360 2 4 6 8 8 8 15 25 28 25 19 21 17 20 20 19 16 6
44 311 330 304 303 298 278 263 243 229 216 218 242 263 250 228 190 219 245 281 330 329 335 343 350 356 358 358 358 3 7 8 18 27 23 20 22 24 23 19 19 20 15 7
8 48 345 298 320 335 289 251 210 216 210 189 216 234 209 197 207 214 219 225 243 275 307 326 334 337 341 347 354 5 5 11 21 24 21 21 22 25 24 19 23 18 11 10
162 129 155 308 357 279 255 271 199 220 247 219 227 230 207 213 220 226 213 212 232 249 269 290 311 325 334 348 3 11 17 20 22 22 18 16 19 21 19 23 22 14 10 2
170 154 145 352 304 284 294 257 179 196 280 228 218 230 214 161 40 283 228 208 217 226 232 248 264 299 341 359 4 21 22 20 21 17 12 10 12 14 14 12 7 3 4 359
89 117 138 153 273 261 264 279 173 104 293 257 200 207 188 146 203 256 220 196 205 208 212 234 268 35 13 352 13 34 19 17 11 4 4 5 7 9 6 358 353 354 358 351
160 159 185 201 242 268 257 240 126 161 261 260 193 196 182 192 212 222 169 182 195 197 201 181 127 86 314 353 38 35 15 359 344 352 0 4 2 359 354 355 355 354 358 355
194 189 201 181 217 261 230 150 187 225 268 227 203 195 194 210 219 206 197 197 194 195 195 174 169 239 307 22 61 30 345 322 337 352 358 356 353 354 357 359 356 355 357 358
208 198 195 202 223 250 220 218 244 232 243 239 215 215 194 201 218 220 218 215 216 212 208 189 188 238 294 316 155 265 297 317 337 352 349 346 352 358 359 358 355 357 359 357
260 199 208 256 261 255 252 252 256 239 239 243 230 220 199 208 216 219 221 222 220 221 215 200 190 228 256 254 238 255 290 318 345 349 344 348 354 353 356 356 353 352 348 343
239 189 219 260 276 293 278 241 239 240 236 235 231 216 210 204 217 215 218 222 221 222 217 200 205 227 244 247 249 279 311 350 352 343 344 346 347 342 340 339 333 326 311 313
205 194 200 236 236 226 264 271 241 227 231 224 217 227 221 207 215 212 216 218 214 214 210 207 215 226 238 236 257 290 308 336 342 334 332 328 327 328 328 326 325 320 316 323
Height
1487 1490 1491 1490 1491 1491 1492 1493 1491 1487 1483 1484 1481 1476 1469 1465 1462 1459 1456 1453 1450 1448 1446 1445 1446 1447 1447 1449 1450 1453 1455 1459 1462 1465 1468 1472 1475 1479 1482 1485 1488 1491 1494 1497
1490 1490 1487 1487 1489 1490 1491 1491 1489 1485 1481 1481 1479 1474 1468 1464 1461 1459 1456 1452 1449 1446 1443 1442 1442 1443 1444 1445 1447 1449 1451 1454 1458 1461 1464 1468 1471 1475 1477 1481 1484 1487 1490 1492
1488 1487 1484 1486 1487 1488 1487 1488 1486 1485 1481 1479 1479 1473 1468 1463 1461 1458 1456 1453 1449 1446 1442 1441 1440 1441 1441 1442 1443 1445 1447 1451 1454 1457 1461 1465 1468 1470 1473 1475 1478 1481 1484 1487
1486 1484 1484 1485 1485 1485 1485 1482 1482 1482 1484 1484 1483 1480 1470 1466 1463 1460 1457 1453 1449 1446 1443 1441 1440 1440 1439 1440 1441 1442 1445 1448 1451 1454 1457 1460 1462 1464 1467 1470 1473 1476 1479 1482
1486 1483 1483 1483 1482 1482 1482 1479 1480 1480 1483 1485 1483 1482 1476 1469 1465 1463 1459 1456 1451 1448 1444 1442 1440 1438 1438 1438 1438 1440 1443 1445 1448 1451 1454 1456 1458 1461 1464 1466 1469 1472 1475 1478
1485 1482 1482 1481 1479 1479 1479 1480 1479 1481 1483 1485 1483 1484 1480 1474 1470 1466 1461 1458 1454 1449 1445 1442 1440 1439 1438 1437 1437 1439 1440 1442 1445 1448 1450 1452 1454 1457 1460 1461 1464 1467 1470 1473
1486 1483 1481 1480 1480 1479 1481 1484 1488 1488 1490 1487 1482 1483 1481 1474 1471 1468 1464 1460 1456 1452 1448 1445 1442 1439 1438 1437 1437 1437 1438 1440 1442 1445 1447 1449 1451 1453 1455 1458 1461 1463 1465 1467
1491 1489 1482 1480 1481 1481 1481 1483 1488 1489 1487 1487 1483 1481 1478 1473 1471 1468 1465 1462 1458 1454 1451 1448 1445 1442 1440 1439 1438 1438 1438 1439 1441 1443 1444 1446 1448 1449 1452 1454 1456 1458 1460 1462
1492 1489 1481 1480 1479 1480 1481 1483 1484 1489 1491 1490 1485 1481 1475 1473 1471 1469 1466 1463 1460 1456 1453 1450 1448 1445 1443 1441 1439 1438 1438 1439 1440 1441 1442 1443 1445 1447 1449 1451 1453 1455 1456 1457
1490 1490 1484 1481 1479 1481 1482 1483 1487 1489 1488 1485 1483 1482 1479 1475 1473 1471 1468 1465 1463 1460 1456 1453 1450 1447 1445 1443 1441 1439 1439 1439 1439 1439 1439 1440 1442 1444 1446 1448 1450 1451 1452 1453
1489 1491 1488 1483 1483 1484 1484 1484 1487 1490 1489 1489 1486 1481 1474 1473 1473 1471 1469 1467 1464 1461 1458 1455 1453 1450 1448 1446 1443 1441 1440 1439 1438 1437 1437 1439 1440 1442 1443 1445 1447 1447 1448 1450
1489 1493 1492 1486 1482 1482 1482 1483 1486 1488 1490 1493 1492 1485 1472 1472 1472 1471 1470 1468 1466 1463 1460 1457 1454 1452 1449 1447 1444 1442 1441 1439 1438 1437 1437 1438 1439 1440 1441 1442 1443 1444 1445 1446
1489 1492 1495 1489 1488 1485 1483 1483 1484 1488 1492 1494 1490 1483 1473 1472 1472 1471 1470 1469 1467 1464 1462 1459 1456 1453 1450 1448 1446 1443 1442 1441 1439 1438 1437 1438 1438 1438 1438 1439 1440 1441 1442 1442
1488 1493 1496 1494 1489 1487 1484 1482 1483 1486 1490 1490 1486 1480 1474 1473 1472 1471 1470 1469 1467 1465 1463 1460 1458 1455 1452 1450 1448 1446 1444 1442 1441 1439 1438 1437 1437 1437 1437 1437 1437 1438 1438 1439
1488 1492 1491 1490 1487 1485 1483 1481 1481 1483 1482 1485 1478 1477 1472 1471 1471 1470 1470 1469 1468 1466 1464 1461 1459 1457 1454 1452 1450 1447 1445 1444 1442 1440 1439 1438 1437 1437 1436 1435 1436 1436 1437 1437
1490 1491 1490 1488 1485 1485 1482 1478 1478 1478 1477 1478 1476 1474 1468 1468 1469 1469 1469 1468 1467 1466 1464 1463 1461 1458 1456 1453 1451 1449 1447 1445 1443 1441 1440 1438 1437 1436 1436 1435 1435 1435 1435 1435
1492 1492 1492 1492 1489 1484 1481 1473 1473 1472 1471 1472 1473 1469 1466 1467 1467 1467 1467 1467 1467 1466 1465 1463 1462 1460 1457 1455 1453 1450 1448 1446 1444 1442 1441 1440 1439 1437 1436 1435 1435 1434 1434 1433
1492 1494 1496 1495 1492 1486 1474 1468 1468 1469 1467 1467 1465 1464 1464 1464 1465 1465 1466 1466 1465 1465 1464 1463 1462 1460 1458 1456 1454 1452 1450 1448 1446 1444 1442 1441 1439 1437 1436 1435 1434 1433 1432 1432
1490 1492 1496 1497 1496 1487 1471 1466 1467 1468 1465 1461 1462 1461 1463 1463 1465 1464 1463 1464 1464 1464 1464 1463 1462 1460 1459 1457 1455 1453 1451 1449 1447 1445 1443 1441 1440 1438 1436 1435 1434 1433 1431 1430
1491 1492 1496 1496 1493 1482 1468 1464 1464 1467 1465 1458 1458 1459 1461 1463 1467 1463 1461 1462 1462 1463 1463 1462 1461 1460 1459 1457 1455 1453 1452 1450 1448 1446 1444 1443 1441 1439 1437 1436 1435 1433 1431 1430
1491 1493 1495 1494 1493 1481 1467 1464 1465 1470 1463 1456 1456 1457 1458 1459 1460 1459 1459 1460 1461 1461 1461 1461 1460 1459 1458 1457 1455 1453 1452 1450 1449 1447 1445 1443 1442 1440 1438 1436 1435 1432 1430 1428
1489 1492 1492 1492 1491 1479 1462 1463 1465 1461 1455 1455 1455 1455 1456 1456 1457 1457 1458 1458 1458 1459 1459 1459 1458 1458 1457 1456 1455 1453 1451 1450 1449 1447 1445 1443 1442 1440 1438 1436 1433 1431 1429 1427
1485 1482 1481 1481 1473 1462 1459 1458 1456 1456 1454 1453 1453 1454 1454 1454 1455 1455 1456 1456 1457 1457 1457 1457 1456 1456 1455 1454 1453 1452 1451 1450 1448 1446 1444 1442 1441 1439 1437 1435 1432 1430 1428 1426
1477 1475 1476 1473 1461 1456 1455 1454 1453 1453 1452 1452 1452 1452 1452 1452 1452 1453 1453 1454 1454 1454 1454 1454 1454 1454 1453 1453 1452 1451 1450 1448 1447 1445 1443 1441 1439 1437 1436 1434 1431 1429 1427 1424
1472 1472 1472 1468 1458 1453 1449 1449 1449 1449 1449 1449 1449 1449 1449 1449 1449 1450 1450 1450 1451 1451 1451 1451 1451 1451 1451 1450 1450 1449 1448 1446 1445 1443 1441 1439 1438 1436 1434 1432 1430 1428 1426 1424
1462 1463 1464 1458 1451 1451 1447 1447 1447 1446 1446 1446 1445 1445 1446 1446 1446 1446 1447 1447 1448 1448 1448 1448 1448 1448 1448 1448 1447 1446 1445 1444 1442 1440 1439 1437 1435 1434 1432 1430 1428 1426 1424 1422